Home   Weather   Jyväskylä   Past weeks

Flag for Finland Past Weather in Jyväskylä, Finland — Yesterday and Last 2 Weeks

Now
37 °F

Partly sunny.


Feels Like: 33 °F
Forecast: 30 / 39 °F
Wind: 6 mph from North

Location: Jyvaskyla Airport

Current Time: Apr 28, 2017 at 1:42:47 pm

Latest Report: Apr 28, 2017 at 12:50 pm


Visibility: N/A

Pressure: 30.15 "Hg

Humidity: 65%

Dew Point: 27 °F

Location of JyväskyläLocation

Past Weather in Jyväskylä — Graph

°F

Jyväskylä Temperature Yesterday

Maximum temperature yesterday: 39 °F (at 2:20 pm)
Minimum temperature yesterday: 28 °F (at 10:50 pm)
Average temperature yesterday: 34 °F

High & Low Weather Summary for the Past Weeks

 TemperatureHumidityPressure
High46 °F (Apr 22, 3:50 pm)100% (Apr 20, 11:20 pm)30.45 "Hg (Apr 20, 11:20 pm)
Low12 °F (Apr 18, 5:20 am)24% (Apr 19, 3:50 pm)29.12 "Hg (Apr 22, 2:20 am)
Average31 °F69%29.74 "Hg
* Reported Apr 13 12:20 pm — Apr 28 12:50 pm, Jyväskylä, Weather by CustomWeather, © 2017

Note: Actual official high and low records may vary slightly from our data, if they occured in-between our weather recording intervals... More about our weather records

Advertising

Jyväskylä Weather History for the Previous 24 Hours

Scroll right to see more
 ConditionsComfort  
Time TempWeatherWind HumidityBarometerVisibility
12:50 pm
Fri, Apr 28
37 °FPartly sunny.6 mph65%30.15 "HgN/A
12:20 pm37 °FPartly sunny.8 mph70%30.15 "HgN/A
11:50 am36 °FBroken clouds.8 mph75%30.15 "HgN/A
11:20 am36 °FPartly sunny.7 mph75%30.12 "HgN/A
10:50 am36 °FPartly sunny.7 mph70%30.12 "HgN/A
10:20 am36 °FPartly sunny.7 mph75%30.12 "HgN/A
9:50 am36 °FScattered clouds.6 mph75%30.09 "HgN/A
9:20 am36 °FScattered clouds.6 mph70%30.09 "HgN/A
8:50 am34 °FScattered clouds.5 mph75%30.07 "HgN/A
8:20 am34 °FScattered clouds.5 mph75%30.07 "HgN/A
7:50 am32 °FSunny.5 mph87%30.07 "Hg10 mi
7:20 am30 °FPassing clouds.5 mph93%30.04 "HgN/A
6:50 am28 °FSunny.2 mph93%30.04 "Hg10 mi
6:20 am28 °FSunny.3 mph93%30.01 "Hg10 mi
5:50 am28 °FSunny.5 mph93%30.01 "Hg10 mi
5:20 am25 °FPassing clouds.5 mph93%30.01 "HgN/A
4:50 am28 °FClear.3 mph93%29.98 "Hg10 mi
4:20 am30 °FPartly cloudy.6 mph93%29.98 "HgN/A
3:50 am30 °FOvercast.1 mph93%29.98 "HgN/A
3:20 am28 °FOvercast.2 mph93%29.95 "HgN/A
2:50 am30 °FPassing clouds.5 mph93%29.95 "HgN/A
2:20 am27 °FPassing clouds.3 mph93%29.92 "HgN/A
1:50 am28 °FLight snow. Passing clouds.3 mph93%29.92 "HgN/A
1:20 am28 °FClear.2 mph93%29.92 "Hg10 mi
12:50 am28 °FPassing clouds.No wind93%29.89 "HgN/A
12:20 am28 °FPassing clouds.1 mph93%29.89 "HgN/A
11:50 pm
Thu, Apr 27
28 °FPassing clouds.1 mph86%29.89 "HgN/A
11:20 pm30 °FPassing clouds.No wind86%29.89 "HgN/A
10:50 pm28 °FPassing clouds.2 mph93%29.86 "HgN/A
10:20 pm30 °FPassing clouds.3 mph93%29.86 "HgN/A
9:50 pm30 °FPassing clouds.3 mph86%29.83 "HgN/A
9:20 pm32 °FPassing clouds.2 mph80%29.83 "HgN/A
8:50 pm34 °FPassing clouds.2 mph75%29.83 "HgN/A
8:20 pm34 °FPassing clouds.8 mph75%29.80 "HgN/A
7:50 pm37 °FPassing clouds.8 mph65%29.80 "HgN/A
7:20 pm37 °FPartly sunny.8 mph70%29.77 "HgN/A
6:50 pm39 °FPartly sunny.9 mph65%29.77 "HgN/A
6:20 pm37 °FScattered clouds.12 mph70%29.77 "HgN/A
5:50 pm39 °FPartly sunny.8 mph65%29.74 "HgN/A
5:20 pm39 °FBroken clouds.12 mph70%29.74 "HgN/A
4:50 pm39 °FBroken clouds.9 mph65%29.74 "HgN/A
4:20 pm39 °FBroken clouds.12 mph65%29.71 "HgN/A
3:50 pm39 °FPartly sunny.15 mph65%29.71 "HgN/A
3:20 pm39 °FScattered clouds.14 mph65%29.68 "HgN/A
2:50 pm37 °FBroken clouds.14 mph70%29.68 "HgN/A
2:20 pm39 °FScattered showers. Scattered clouds.14 mph70%29.68 "HgN/A
1:50 pm37 °FBroken clouds.13 mph75%29.65 "HgN/A
1:20 pm36 °FLight rain. Broken clouds.13 mph81%29.65 "HgN/A
Weather by CustomWeather, © 2017

See weather overviewHow to use our weather pages